GW7391 Weather Reports


time (UTC)temp
C
wind
direction
speed
KPH
gust
KPH
rain 1hr
cm
rain 24hr
cm
rain mn
cm
humidity
%
barometer
mb
20260506230717 11 231 3.2 9.7 0.00 0.00 0.00 38 980.3
20260506230218 11 229 3.2 9.7 0.00 0.00 0.00 39 980.1
20260506225503 11 228 3.2 11.3 0.00 0.00 0.00 39 980.3
20260506225003 11 229 3.2 8.0 0.00 0.00 0.00 38 980.3
20260506224503 11 202 1.6 8.0 0.00 0.00 0.00 38 980.4
20260506224003 11 140 1.6 4.8 0.00 0.00 0.00 40 980.5
20260506223503 11 222 3.2 8.0 0.00 0.00 0.00 40 980.3
20260506223003 11 233 3.2 9.7 0.00 0.00 0.00 38 980.3
20260506222503 11 240 3.2 9.7 0.00 0.00 0.00 38 980.5
20260506222003 11 241 4.8 12.9 0.00 0.00 0.00 38 980.3
20260506221503 11 238 6.4 19.3 0.00 0.00 0.00 37 980.4
20260506221218 11 228 4.8 19.3 0.00 0.00 0.00 39 980.5
20260506220503 11 222 1.6 12.9 0.00 0.00 0.00 40 980.4
20260506220003 11 223 3.2 12.9 0.00 0.00 0.00 39 980.6
20260506215503 11 193 1.6 6.4 0.00 0.00 0.00 40 980.5
20260506215217 11 197 1.6 8.0 0.00 0.00 0.00 38 980.4
20260506214716 11 87 1.6 8.0 0.00 0.00 0.00 40 980.5
20260506214217 11 119 1.6 9.7 0.00 0.00 0.00 40 980.4
20260506213503 11 223 3.2 9.7 0.00 0.00 0.00 40 980.4
20260506213003 11 195 3.2 9.7 0.00 0.00 0.00 39 980.2
20260506212503 11 87 1.6 8.0 0.00 0.00 0.00 40 980.3
20260506212217 11 136 1.6 8.0 0.00 0.00 0.00 39 980.4
20260506211503 11 210 3.2 8.0 0.00 0.00 0.00 40 980.1
20260506211217 11 230 4.8 17.7 0.00 0.00 0.00 39 980.4
20260506210503 11 226 4.8 17.7 0.00 0.00 0.00 39 980.4
20260506210003 11 226 6.4 17.7 0.00 0.00 0.00 38 980.1
20260506205716 11 231 8.0 17.7 0.00 0.00 0.00 39 980.2
20260506205003 11 232 8.0 17.7 0.00 0.00 0.00 38 980.5
20260506204503 11 235 6.4 17.7 0.00 0.00 0.00 39 980.2
20260506204003 11 235 6.4 14.5 0.00 0.00 0.00 40 980.4
20260506203503 11 235 6.4 17.7 0.00 0.00 0.00 38 980.2
20260506203003 11 234 4.8 17.7 0.00 0.00 0.00 38 980.3
20260506202503 11 231 4.8 14.5 0.00 0.00 0.00 38 980.2
20260506202003 11 232 4.8 14.5 0.00 0.00 0.00 41 980.5
20260506201503 11 210 3.2 9.7 0.00 0.00 0.00 39 980.3
20260506201003 11 156 3.2 9.7 0.00 0.00 0.00 40 980.4
20260506200503 11 150 3.2 8.0 0.00 0.00 0.00 37 980.3
20260506200003 11 44 3.2 8.0 0.00 0.00 0.00 39 980.4
20260506195503 11 20 4.8 8.0 0.00 0.00 0.00 45 980.7
20260506195003 11 217 4.8 8.0 0.00 0.00 0.00 39 980.8
20260506194503 11 236 4.8 8.0 0.00 0.00 0.00 40 980.8
20260506194003 11 42 3.2 9.7 0.00 0.00 0.00 41 980.8
20260506193503 11 38 1.6 9.7 0.00 0.00 0.00 41 980.6
20260506193217 11 32 3.2 9.7 0.00 0.00 0.00 43 980.7
20260506192503 11 100 3.2 8.0 0.00 0.00 0.00 40 980.6
20260506192003 11 195 3.2 9.7 0.00 0.00 0.00 41 980.9
20260506191503 11 219 3.2 9.7 0.00 0.00 0.00 40 980.8
20260506191003 11 226 3.2 9.7 0.00 0.00 0.00 39 980.9
20260506190503 11 179 3.2 9.7 0.00 0.00 0.00 44 981.0
20260506190004 10 214 4.8 16.1 0.00 0.00 0.00 41 980.8
20260506185503 10 228 6.4 16.1 0.00 0.00 0.00 40 980.8
20260506185003 10 231 4.8 14.5 0.00 0.00 0.00 41 980.8
20260506184717 10 223 3.2 14.5 0.00 0.00 0.00 40 980.9
20260506184003 11 228 3.2 8.0 0.00 0.00 0.00 42 980.7
20260506183503 10 236 3.2 11.3 0.00 0.00 0.00 43 980.5
20260506183216 10 237 4.8 14.5 0.00 0.00 0.00 44 980.7
20260506182717 10 241 6.4 17.7 0.00 0.00 0.00 41 980.8
20260506182003 10 236 4.8 14.5 0.00 0.00 0.00 41 980.7
20260506181503 11 239 3.2 14.5 0.00 0.00 0.00 40 980.7
20260506181003 11 171 3.2 12.9 0.00 0.00 0.00 42 980.5
20260506180503 11 219 4.8 12.9 0.00 0.00 0.00 44 980.5
20260506180004 11 206 3.2 9.7 0.00 0.00 0.00 40 980.6
20260506175503 11 48 1.6 9.7 0.00 0.00 0.00 42 980.8
20260506175003 10 221 3.2 9.7 0.00 0.00 0.00 43 980.7
20260506174503 11 195 3.2 9.7 0.00 0.00 0.00 40 980.8
20260506174003 11 214 3.2 9.7 0.00 0.00 0.00 42 980.8
20260506173503 10 255 3.2 9.7 0.00 0.00 0.00 42 981.0
20260506173003 10 229 4.8 12.9 0.00 0.00 0.00 44 981.3
20260506172503 10 222 6.4 22.5 0.00 0.00 0.00 44 981.2
20260506172003 10 224 3.2 22.5 0.00 0.00 0.00 45 981.2
20260506171717 10 230 3.2 22.5 0.00 0.00 0.00 46 981.3
20260506171003 10 234 4.8 12.9 0.00 0.00 0.00 46 981.4
20260506170503 10 225 4.8 12.9 0.00 0.00 0.00 45 980.9
20260506170218 10 198 3.2 9.7 0.00 0.00 0.00 45 980.9
20260506165717 10 193 4.8 9.7 0.00 0.00 0.00 44 980.9
20260506165003 10 289 3.2 12.9 0.00 0.00 0.00 47 981.2
20260506164717 10 225 4.8 14.5 0.00 0.00 0.00 46 981.1
20260506164218 10 217 3.2 14.5 0.00 0.00 0.00 45 981.3
20260506163503 10 231 4.8 20.9 0.00 0.00 0.00 46 981.1
20260506163003 10 223 4.8 20.9 0.00 0.00 0.00 43 981.0
20260506162503 10 235 3.2 14.5 0.00 0.00 0.00 45 981.0
20260506162003 10 239 4.8 14.5 0.00 0.00 0.00 47 980.9
20260506161503 10 232 4.8 14.5 0.00 0.00 0.00 48 980.9
20260506161003 10 177 3.2 8.0 0.00 0.00 0.00 46 980.9
20260506160503 10 148 3.2 8.0 0.00 0.00 0.00 46 981.0
20260506160003 10 142 3.2 12.9 0.00 0.00 0.00 46 981.2
20260506155503 10 275 3.2 12.9 0.00 0.00 0.00 47 981.2
20260506155003 10 262 4.8 12.9 0.00 0.00 0.00 52 980.9
20260506154503 10 238 4.8 14.5 0.00 0.00 0.00 46 980.9
20260506154003 10 279 4.8 14.5 0.00 0.00 0.00 48 980.6
20260506153503 10 24 4.8 12.9 0.00 0.00 0.00 47 980.8
20260506153003 11 71 3.2 12.9 0.00 0.00 0.00 46 980.8
20260506152718 11 136 3.2 14.5 0.00 0.00 0.00 46 980.5
20260506152003 11 68 4.8 14.5 0.00 0.00 0.00 47 980.6
20260506151504 11 111 3.2 11.3 0.00 0.00 0.00 45 980.6
20260506151003 11 168 3.2 11.3 0.00 0.00 0.00 47 980.6
20260506150504 10 215 4.8 20.9 0.00 0.00 0.00 45 980.7
20260506150004 10 227 4.8 20.9 0.00 0.00 0.00 43 980.7
20260506145503 10 229 4.8 17.7 0.00 0.00 0.00 45 980.7
20260506145003 10 231 4.8 17.7 0.00 0.00 0.00 46 980.4
20260506144503 10 227 4.8 9.7 0.00 0.00 0.00 47 980.4
20260506144217 10 222 4.8 9.7 0.00 0.00 0.00 50 980.4
20260506143503 9 238 4.8 14.5 0.00 0.00 0.00 51 980.4
20260506143003 10 241 4.8 14.5 0.00 0.00 0.00 49 980.1
20260506142503 10 157 3.2 11.3 0.00 0.00 0.00 50 980.2
20260506142003 10 42 3.2 11.3 0.00 0.00 0.00 52 980.3
20260506141503 10 37 3.2 11.3 0.00 0.00 0.00 54 980.1
20260506141003 10 53 4.8 16.1 0.00 0.00 0.00 51 980.0
20260506140503 10 51 4.8 16.1 0.00 0.00 0.00 53 979.9
20260506140217 10 45 4.8 17.7 0.00 0.00 0.00 55 980.0
20260506135503 10 55 4.8 17.7 0.00 0.00 0.00 54 979.9
20260506135216 11 83 3.2 9.7 0.00 0.00 0.00 54 979.7
20260506134718 10 103 3.2 9.7 0.00 0.00 0.00 55 979.8
20260506134003 9 222 3.2 9.7 0.00 0.00 0.00 55 979.7
20260506133503 10 225 3.2 9.7 0.00 0.00 0.00 53 979.9
20260506133216 10 221 3.2 9.7 0.00 0.00 0.00 53 979.9
20260506132503 9 224 6.4 17.7 0.00 0.00 0.00 53 979.7
20260506132003 9 207 4.8 14.5 0.00 0.00 0.00 51 979.5
20260506131503 10 167 3.2 11.3 0.00 0.00 0.00 49 979.6
20260506131003 10 212 3.2 11.3 0.00 0.00 0.00 49 979.4
20260506130717 10 238 3.2 11.3 0.00 0.00 0.00 50 979.4
20260506130003 9 238 4.8 11.3 0.00 0.00 0.00 52 979.6
20260506125503 8 234 4.8 11.3 0.00 0.00 0.00 50 979.1
20260506125216 8 232 4.8 11.3 0.00 0.00 0.00 51 979.0
20260506124717 8 239 4.8 11.3 0.00 0.00 0.00 53 979.1
20260506124003 8 224 3.2 14.5 0.00 0.00 0.00 53 979.3
20260506123717 8 230 3.2 14.5 0.00 0.00 0.00 54 979.0
20260506123003 8 227 1.6 8.0 0.00 0.00 0.00 53 979.1
20260506122503 8 221 1.6 6.4 0.00 0.00 0.00 54 978.7
20260506122003 7 239 1.6 6.4 0.00 0.00 0.00 55 978.8
20260506121503 7 227 3.2 6.4 0.00 0.00 0.00 56 978.7
20260506121003 7 212 1.6 6.4 0.00 0.00 0.00 55 978.8
20260506120503 7 164 1.6 4.8 0.00 0.00 0.00 57 978.6
20260506120003 6 220 1.6 6.4 0.00 0.00 0.00 59 978.8
20260506115503 6 235 1.6 6.4 0.00 0.00 0.00 59 978.5
20260506115003 6 241 1.6 8.0 0.00 0.00 0.00 59 978.6
20260506114503 6 229 1.6 8.0 0.00 0.00 0.00 59 978.6
20260506114003 6 235 1.6 6.4 0.00 0.00 0.00 58 978.8
20260506113503 6 251 1.6 6.4 0.00 0.00 0.00 59 978.4
20260506113003 6 270 1.6 4.8 0.00 0.00 0.00 59 978.4
20260506112503 6 22 0.0 3.2 0.00 0.00 0.00 60 978.2
20260506112003 5 287 0.0 3.2 0.00 0.00 0.00 60 978.2
20260506111717 5 216 0.0 3.2 0.00 0.00 0.00 61 978.1
20260506111003 5 261 0.0 3.2 0.00 0.00 0.00 60 978.2
20260506110503 5 290 0.0 3.2 0.00 0.00 0.00 60 978.2
20260506110003 5 308 0.0 3.2 0.00 0.00 0.00 60 978.2
20260506105503 5 315 0.0 3.2 0.00 0.00 0.00 60 978.0
20260506105003 6 334 0.0 3.2 0.00 0.00 0.00 59 977.9
20260506104503 6 14 0.0 3.2 0.00 0.00 0.00 58 977.9
20260506104003 6 325 0.0 3.2 0.00 0.00 0.00 58 977.8
20260506103503 6 257 1.6 3.2 0.00 0.00 0.00 58 977.8
20260506103217 6 262 0.0 3.2 0.00 0.00 0.00 58 977.6
20260506102503 6 2 0.0 4.8 0.00 0.00 0.00 57 977.4
20260506102003 6 50 1.6 4.8 0.00 0.00 0.00 57 977.4
20260506101718 6 55 1.6 3.2 0.00 0.00 0.00 56 977.7
20260506101003 6 30 0.0 3.2 0.00 0.00 0.00 56 977.9
20260506100503 7 331 0.0 3.2 0.00 0.00 0.00 56 977.5
20260506100004 7 346 1.6 6.4 0.00 0.00 0.00 56 977.6
20260506095718 7 335 1.6 6.4 0.00 0.00 0.00 56 977.7
20260506095217 7 282 1.6 6.4 0.00 0.00 0.00 56 977.4
20260506094503 7 286 1.6 4.8 0.00 0.00 0.00 56 977.1
20260506094003 7 39 1.6 6.4 0.00 0.00 0.00 55 977.4
20260506093718 7 26 1.6 6.4 0.00 0.00 0.00 55 977.2
20260506093217 7 21 1.6 6.4 0.00 0.00 0.00 55 977.0
20260506092503 7 84 1.6 3.2 0.00 0.00 0.00 55 976.9
20260506092217 7 71 1.6 3.2 0.00 0.00 0.00 55 976.8
20260506091503 7 85 0.0 3.2 0.00 0.00 0.00 55 976.9
20260506091003 7 76 1.6 4.8 0.00 0.00 0.00 55 977.2
20260506090503 7 57 1.6 4.8 0.00 0.00 0.00 54 977.0
20260506090004 7 239 1.6 4.8 0.00 0.00 0.00 55 977.1
20260506085503 7 224 1.6 4.8 0.00 0.00 0.00 55 976.8
20260506085217 7 63 1.6 4.8 0.00 0.00 0.00 54 976.8
20260506084503 7 27 1.6 4.8 0.00 0.00 0.00 55 976.7
20260506084003 7 44 1.6 4.8 0.00 0.00 0.00 54 976.9
20260506083503 7 61 1.6 6.4 0.00 0.00 0.00 54 977.0
20260506083003 7 298 1.6 8.0 0.00 0.00 0.00 54 976.9
20260506082717 7 344 1.6 8.0 0.00 0.00 0.00 54 976.9
20260506082003 7 63 1.6 4.8 0.00 0.00 0.00 54 976.8
20260506081718 7 64 1.6 4.8 0.00 0.00 0.00 54 976.8
20260506081003 7 64 1.6 4.8 0.00 0.00 0.00 54 976.8
20260506080503 7 34 1.6 6.4 0.00 0.00 0.00 54 976.8
20260506073503 7 60 1.6 6.4 0.00 0.00 0.00 53 977.1
20260506073003 7 61 1.6 4.8 0.00 0.00 0.00 53 976.8
20260506072503 7 16 1.6 4.8 0.00 0.00 0.00 53 977.0
20260506072003 7 46 1.6 6.4 0.00 0.00 0.00 53 976.8
20260506071503 7 67 1.6 6.4 0.00 0.00 0.00 53 976.7
20260506071003 7 62 1.6 4.8 0.00 0.00 0.00 53 976.8
20260506070717 7 55 1.6 4.8 0.00 0.00 0.00 53 976.9
20260506062503 8 277 1.6 4.8 0.00 0.00 0.00 54 977.1
20260506062003 8 320 1.6 4.8 0.00 0.00 0.00 54 977.1
20260506061503 8 312 1.6 6.4 0.00 0.00 0.00 53 976.8
20260506061003 8 2 1.6 6.4 0.00 0.00 0.00 53 977.2
20260506060503 8 58 1.6 3.2 0.00 0.00 0.00 53 976.9
20260506051003 8 341 1.6 4.8 0.00 0.00 0.00 52 977.0
20260506050503 8 267 1.6 6.4 0.00 0.00 0.00 52 976.8
20260506045003 8 260 1.6 4.8 0.00 0.00 0.00 53 977.1
20260506044503 8 269 1.6 4.8 0.00 0.00 0.00 52 977.0
20260506044003 8 273 1.6 6.4 0.00 0.00 0.00 52 977.0
20260506043718 8 266 1.6 6.4 0.00 0.00 0.00 52 977.1
20260506043003 8 261 1.6 6.4 0.00 0.00 0.00 52 977.1
20260506042503 8 256 1.6 6.4 0.00 0.00 0.00 52 976.9
20260506042003 8 261 1.6 4.8 0.00 0.00 0.00 51 976.9
20260506041503 8 282 1.6 4.8 0.00 0.00 0.00 51 976.8
20260506041003 8 274 0.0 4.8 0.00 0.00 0.00 52 976.8
20260506040718 8 288 0.0 4.8 0.00 0.00 0.00 51 976.8
20260506040217 8 264 1.6 4.8 0.00 0.00 0.00 51 976.8
20260506035718 8 251 1.6 4.8 0.00 0.00 0.00 51 976.9
20260506035003 8 285 0.0 4.8 0.00 0.00 0.00 51 976.8
20260506034503 8 335 0.0 3.2 0.00 0.00 0.00 51 976.6
20260506034003 8 243 0.0 3.2 0.00 0.00 0.00 50 976.8
20260506033503 8 275 1.6 3.2 0.00 0.00 0.00 50 976.9
20260506033003 8 295 0.0 3.2 0.00 0.00 0.00 50 976.9
20260506032503 9 262 0.0 4.8 0.00 0.00 0.00 50 976.9
20260506032217 9 270 0.0 4.8 0.00 0.00 0.00 50 976.7
20260506031718 9 316 1.6 4.8 0.00 0.00 0.00 49 976.9
20260506031003 9 36 0.0 3.2 0.00 0.00 0.00 49 977.0
20260506030717 9 31 0.0 3.2 0.00 0.00 0.00 49 976.9
20260506030003 9 316 0.0 3.2 0.00 0.00 0.00 49 976.9
20260506025503 9 305 0.0 4.8 0.00 0.00 0.00 48 976.8
20260506025218 9 303 0.0 4.8 0.00 0.00 0.00 48 976.8
20260506024503 9 320 1.6 4.8 0.00 0.00 0.00 48 976.9
20260506024003 9 314 1.6 4.8 0.00 0.00 0.00 48 976.8
20260506023503 9 307 1.6 6.4 0.00 0.00 0.00 47 977.0
20260506023003 9 298 1.6 6.4 0.00 0.00 0.00 47 976.8
20260506022717 9 298 1.6 6.4 0.00 0.00 0.00 47 976.9
20260506022003 9 288 1.6 6.4 0.00 0.00 0.00 46 976.9
20260506021503 9 283 1.6 4.8 0.00 0.00 0.00 46 976.9
20260506021218 9 279 1.6 4.8 0.00 0.00 0.00 46 976.7
20260506020503 9 329 1.6 4.8 0.00 0.00 0.00 45 976.6
20260506020003 9 358 1.6 4.8 0.00 0.00 0.00 46 976.7
20260506015503 9 314 1.6 8.0 0.00 0.00 0.00 45 976.6
20260506015003 9 302 1.6 8.0 0.00 0.00 0.00 45 976.7
20260506014503 10 293 1.6 4.8 0.00 0.00 0.00 45 976.6
20260506014003 10 289 1.6 4.8 0.00 0.00 0.00 44 976.6
20260506013503 10 304 1.6 6.4 0.00 0.00 0.00 44 976.6
20260506013003 10 286 1.6 6.4 0.00 0.00 0.00 44 976.5
20260506012503 10 268 1.6 8.0 0.00 0.00 0.00 44 976.5
20260506012003 10 269 1.6 8.0 0.00 0.00 0.00 43 976.3
20260506011503 10 296 1.6 6.4 0.00 0.00 0.00 43 976.1
20260506011218 10 300 1.6 6.4 0.00 0.00 0.00 43 976.3
20260506010503 10 278 1.6 8.0 0.00 0.00 0.00 42 976.3
20260506010003 10 275 1.6 8.0 0.00 0.00 0.00 42 976.5
20260506005717 10 263 1.6 8.0 0.00 0.00 0.00 42 976.1
20260506005003 10 268 1.6 8.0 0.00 0.00 0.00 42 976.2
20260506004504 10 268 1.6 8.0 0.00 0.00 0.00 42 976.3
20260506004218 10 276 3.2 8.0 0.00 0.00 0.00 42 976.5
20260506003503 10 287 3.2 8.0 0.00 0.00 0.00 41 976.2
20260506003003 10 279 3.2 11.3 0.00 0.00 0.00 41 976.2
20260506002717 10 287 3.2 11.3 0.00 0.00 0.00 41 976.3
20260506002003 10 292 3.2 9.7 0.00 0.00 0.00 41 976.4
20260506001503 10 279 3.2 9.7 0.00 0.00 0.00 41 976.3
20260506001003 10 323 3.2 9.7 0.00 0.00 0.00 40 976.3
20260506000716 10 283 3.2 9.7 0.00 0.00 0.00 40 976.5
20260506000003 10 272 4.8 14.5 0.00 0.00 0.00 40 976.0
20260505235503 11 293 4.8 16.1 0.00 0.00 0.00 40 976.1
20260505235003 11 292 4.8 16.1 0.00 0.00 0.00 39 976.1
20260505234503 11 291 3.2 12.9 0.00 0.00 0.00 39 976.0
20260505234003 11 274 3.2 11.3 0.00 0.00 0.00 39 975.8
20260505233503 11 263 4.8 11.3 0.00 0.00 0.00 39 975.8
20260505233003 11 261 4.8 9.7 0.00 0.00 0.00 39 975.9
20260505232503 11 268 4.8 12.9 0.00 0.00 0.00 38 975.8
20260505232217 11 270 4.8 12.9 0.00 0.00 0.00 38 975.8
20260505231503 11 283 3.2 11.3 0.00 0.00 0.00 39 975.7
20260505231003 11 329 3.2 9.7 0.00 0.00 0.00 38 976.0